TimeEDT,TemperatureF,Dew PointF,Humidity,Sea Level PressureIn,VisibilityMPH,Wind Direction,Wind SpeedMPH,Gust SpeedMPH,PrecipitationIn,Events,Conditions,WindDirDegrees,DateUTC
12:15 AM,51.8,42.8,71,30.12,10.0,WNW,4.6,-,N/A,,Partly Cloudy,300,2012-10-11 04:15:00
12:35 AM,51.8,41.0,67,30.12,10.0,NNW,3.5,-,N/A,,Partly Cloudy,330,2012-10-11 04:35:00
12:55 AM,48.2,44.6,87,30.13,10.0,WNW,3.5,-,N/A,,Clear,290,2012-10-11 04:55:00
1:15 AM,48.2,42.8,82,30.14,10.0,NW,5.8,-,N/A,,Clear,310,2012-10-11 05:15:00
1:35 AM,46.4,42.8,87,30.14,10.0,WNW,5.8,-,N/A,,Clear,300,2012-10-11 05:35:00
1:55 AM,46.4,41.0,81,30.15,10.0,WNW,3.5,-,N/A,,Clear,290,2012-10-11 05:55:00
2:15 AM,42.8,42.8,100,30.15,10.0,SE,3.5,-,N/A,,Clear,130,2012-10-11 06:15:00
2:35 AM,44.6,42.8,93,30.16,10.0,Calm,Calm,-,N/A,,Clear,0,2012-10-11 06:35:00
2:55 AM,44.6,39.2,81,30.16,10.0,NW,6.9,-,N/A,,Clear,310,2012-10-11 06:55:00
3:15 AM,46.4,39.2,76,30.16,10.0,NW,4.6,-,N/A,,Clear,310,2012-10-11 07:15:00
3:55 AM,46.4,37.4,71,30.18,10.0,NW,6.9,-,N/A,,Clear,320,2012-10-11 07:55:00
4:15 AM,46.4,37.4,71,30.19,10.0,NNW,6.9,-,N/A,,Clear,340,2012-10-11 08:15:00
4:35 AM,46.4,37.4,71,30.20,10.0,NNW,8.1,-,N/A,,Clear,330,2012-10-11 08:35:00
4:55 AM,46.4,35.6,66,30.21,10.0,NW,5.8,-,N/A,,Clear,320,2012-10-11 08:55:00
5:15 AM,44.6,35.6,71,30.21,10.0,NW,9.2,-,N/A,,Clear,320,2012-10-11 09:15:00
5:35 AM,46.4,33.8,62,30.23,10.0,Calm,Calm,-,N/A,,Clear,0,2012-10-11 09:35:00
5:55 AM,46.4,33.8,62,30.24,10.0,WNW,5.8,-,N/A,,Clear,300,2012-10-11 09:55:00
6:15 AM,44.6,35.6,71,30.25,10.0,NW,11.5,-,N/A,,Clear,310,2012-10-11 10:15:00
8:55 AM,48.2,33.8,58,30.30,10.0,NNW,11.5,-,N/A,,Clear,330,2012-10-11 12:55:00
9:50 AM,51.8,33.8,50,30.31,10.0,NNW,9.2,-,N/A,,Clear,330,2012-10-11 13:50:00
1:45 PM,59.0,33.8,39,30.26,10.0,NW,5.8,-,N/A,,Clear,320,2012-10-11 17:45:00
2:50 PM,59.0,33.8,39,30.24,10.0,Calm,Calm,-,N/A,,Clear,0,2012-10-11 18:50:00
3:50 PM,60.8,33.8,36,30.22,10.0,West,5.8,-,N/A,,Clear,260,2012-10-11 19:50:00
4:45 PM,60.8,33.8,36,30.22,10.0,SW,3.5,-,N/A,,Clear,230,2012-10-11 20:45:00
9:15 PM,46.4,42.8,87,30.20,10.0,Calm,Calm,-,N/A,,Clear,0,2012-10-12 01:15:00
9:35 PM,44.6,42.8,93,30.20,10.0,Calm,Calm,-,N/A,,Clear,0,2012-10-12 01:35:00
9:55 PM,42.8,42.8,100,30.20,10.0,Calm,Calm,-,N/A,,Clear,0,2012-10-12 01:55:00
10:15 PM,44.6,42.8,93,30.20,10.0,Calm,Calm,-,N/A,,Clear,0,2012-10-12 02:15:00
10:35 PM,44.6,42.8,93,30.20,10.0,Calm,Calm,-,N/A,,Clear,0,2012-10-12 02:35:00
10:55 PM,42.8,41.0,93,30.19,10.0,Calm,Calm,-,N/A,,Clear,0,2012-10-12 02:55:00
11:55 PM,42.8,42.8,100,30.19,10.0,Calm,Calm,-,N/A,,Clear,0,2012-10-12 03:55:00